GW4768 Weather Reports


Display with metric or nautical units.
time (UTC)temp
F
wind
direction
speed
MPH
gust
MPH
rain 1hr
in
rain 24hr
in
rain mn
in
humidity
%
barometer
mb
20260831071503 50 126 4.0 7.0 0.00 0.00 0.00 48 1019.5
20260831070028 50 123 3.0 4.0 0.00 0.00 0.00 48 1019.5
20260831064519 51 127 1.0 6.0 0.00 0.00 0.00 46 1019.6
20260831063025 51 128 4.0 8.0 0.00 0.00 0.00 45 1019.4
20260831061516 50 115 6.0 8.0 0.00 0.00 0.00 46 1019.4
20260831060012 52 103 7.0 11.0 0.00 0.00 0.00 45 1019.2
20260831054514 53 110 7.0 11.0 0.00 0.00 0.00 44 1019.0
20260831053007 52 139 9.0 12.0 0.00 0.00 0.00 44 1018.9
20260831051536 53 146 9.0 12.0 0.00 0.00 0.00 45 1018.8
20260831050029 53 129 10.0 14.0 0.00 0.00 0.00 43 1018.8
20260831044524 53 148 9.0 13.0 0.00 0.00 0.00 44 1018.8
20260831043023 54 112 9.0 14.0 0.00 0.00 0.00 44 1018.9
20260831041518 55 126 6.0 10.0 0.00 0.00 0.00 42 1018.8
20260831040015 55 122 8.0 9.0 0.00 0.00 0.00 42 1018.7
20260831034512 56 135 5.0 9.0 0.00 0.00 0.00 41 1018.6
20260831033012 56 124 4.0 8.0 0.00 0.00 0.00 39 1018.5
20260831031534 57 136 3.0 6.0 0.00 0.00 0.00 36 1018.3
20260831030027 58 132 2.0 6.0 0.00 0.00 0.00 36 1018.2
20260831024530 60 171 0.0 3.0 0.00 0.00 0.00 36 1018.0
20260831023027 61 224 1.0 2.0 0.00 0.00 0.00 34 1017.8
20260831021541 63 296 0.0 3.0 0.00 0.00 0.00 30 1017.7
20260831020018 64 242 2.0 3.0 0.00 0.00 0.00 30 1017.5
20260831014513 65 304 1.0 5.0 0.00 0.00 0.00 29 1017.5
20260831013015 66 352 2.0 5.0 0.00 0.00 0.00 28 1017.7
20260831011541 68 309 2.0 7.0 0.00 0.00 0.00 26 1017.8
20260831010036 69 273 1.0 7.0 0.00 0.00 0.00 24 1017.6
20260831004532 69 283 3.0 12.0 0.00 0.00 0.00 23 1017.7
20260831003029 69 260 2.0 8.0 0.00 0.00 0.00 24 1017.6
20260831001536 70 279 5.0 10.0 0.00 0.00 0.00 24 1017.6
20260831000025 69 316 2.0 8.0 0.00 0.00 0.00 26 1017.6
20260830234525 69 314 5.0 9.0 0.00 0.00 0.00 25 1017.5
20260830233033 70 315 3.0 7.0 0.00 0.00 0.00 23 1017.5
20260830231537 71 237 1.0 10.0 0.00 0.00 0.00 25 1017.5
20260830230033 70 261 5.0 13.0 0.00 0.00 0.00 24 1017.6
20260830224533 70 227 0.0 5.0 0.00 0.00 0.00 29 1017.6
20260830223032 70 273 4.0 7.0 0.00 0.00 0.00 27 1017.6
20260830221532 69 247 3.0 6.0 0.00 0.00 0.00 26 1017.8
20260830220036 68 114 2.0 5.0 0.00 0.00 0.00 27 1017.9
20260830214527 69 140 0.0 6.0 0.00 0.00 0.00 29 1018.0
20260830213034 67 360 1.0 4.0 0.00 0.00 0.00 29 1017.9
20260830211531 69 123 4.0 10.0 0.00 0.00 0.00 28 1017.9
20260830210034 67 236 3.0 5.0 0.00 0.00 0.00 33 1017.9
20260830204537 64 307 2.0 8.0 0.00 0.00 0.00 38 1017.9
20260830203033 64 16 6.0 10.0 0.00 0.00 0.00 34 1018.0
20260830201532 63 84 6.0 12.0 0.00 0.00 0.00 35 1018.1
20260830200031 64 63 6.0 9.0 0.00 0.00 0.00 35 1018.0
20260830194531 63 9 3.0 8.0 0.00 0.00 0.00 33 1018.1
20260830193004 64 247 2.0 8.0 0.00 0.00 0.00 34 1018.4
20260830191526 64 221 3.0 11.0 0.00 0.00 0.00 37 1018.4
20260830190021 63 134 1.0 7.0 0.00 0.00 0.00 36 1018.5
20260830184516 62 270 3.0 13.0 0.00 0.00 0.00 40 1018.6
20260830183014 62 227 3.0 9.0 0.00 0.00 0.00 37 1018.8
20260830181511 62 248 5.0 12.0 0.00 0.00 0.00 40 1018.8
20260830180008 62 284 4.0 11.0 0.00 0.00 0.00 36 1018.9
20260830174507 62 308 5.0 9.0 0.00 0.00 0.00 40 1018.8
20260830173003 61 207 1.0 9.0 0.00 0.00 0.00 40 1018.9
20260830171530 61 342 5.0 11.0 0.00 0.00 0.00 39 1018.9
20260830170027 60 239 3.0 12.0 0.00 0.00 0.00 43 1019.0
20260830164528 60 227 2.0 10.0 0.00 0.00 0.00 42 1018.9
20260830163029 60 182 2.0 7.0 0.00 0.00 0.00 45 1019.1
20260830161518 59 185 3.0 10.0 0.00 0.00 0.00 48 1019.1
20260830160012 58 62 1.0 9.0 0.00 0.00 0.00 50 1019.1
20260830154513 56 224 3.0 6.0 0.00 0.00 0.00 49 1019.1
20260830153020 55 186 3.0 9.0 0.00 0.00 0.00 51 1019.3
20260830151540 56 224 2.0 5.0 0.00 0.00 0.00 51 1019.4
20260830150027 56 128 0.0 4.0 0.00 0.00 0.00 53 1019.5
20260830144535 54 175 1.0 4.0 0.00 0.00 0.00 56 1019.4
20260830143029 52 132 1.0 8.0 0.00 0.00 0.00 59 1019.2
20260830141534 49 144 5.0 8.0 0.00 0.00 0.00 59 1019.2
20260830140017 48 153 5.0 8.0 0.00 0.00 0.00 60 1019.2
20260830134517 47 119 5.0 9.0 0.00 0.00 0.00 61 1019.1
20260830133033 45 164 7.0 11.0 0.00 0.00 0.00 64 1018.9
20260830131532 45 139 7.0 10.0 0.00 0.00 0.00 63 1018.8
20260830130033 47 123 5.0 10.0 0.00 0.00 0.00 61 1018.7
20260830124537 47 144 3.0 10.0 0.00 0.00 0.00 60 1018.7
20260830123033 47 140 3.0 10.0 0.00 0.00 0.00 61 1018.8
20260830121524 48 103 5.0 8.0 0.00 0.00 0.00 59 1018.5
20260830120019 46 117 5.0 10.0 0.00 0.00 0.00 63 1018.4
20260830114516 46 140 7.0 10.0 0.00 0.00 0.00 64 1018.3
20260830113031 47 119 8.0 10.0 0.00 0.00 0.00 62 1018.2
20260830111534 48 117 2.0 7.0 0.00 0.00 0.00 61 1018.3
20260830110043 48 111 2.0 7.0 0.00 0.00 0.00 62 1018.2
20260830104537 48 120 4.0 7.0 0.00 0.00 0.00 65 1018.0
20260830103030 50 98 3.0 4.0 0.00 0.00 0.00 64 1017.9
20260830101526 51 130 1.0 2.0 0.00 0.00 0.00 68 1017.9
20260830100025 51 93 0.0 2.0 0.00 0.00 0.00 69 1017.8
20260830094535 52 31 0.0 2.0 0.00 0.00 0.00 66 1017.6
20260830093032 53 254 2.0 5.0 0.00 0.00 0.00 58 1017.6
20260830091535 54 205 0.0 2.0 0.00 0.00 0.00 51 1017.5
20260830090034 55 92 1.0 2.0 0.00 0.00 0.00 52 1017.3
20260830084532 54 68 0.0 2.0 0.00 0.00 0.00 52 1017.4
20260830083031 54 61 0.0 2.0 0.00 0.00 0.00 55 1017.3
20260830081527 54 58 0.0 4.0 0.00 0.00 0.00 58 1017.4
20260830080026 54 62 2.0 4.0 0.00 0.00 0.00 62 1017.3
20260830074537 54 65 2.0 4.0 0.00 0.00 0.00 64 1017.3
20260830073023 54 84 2.0 3.0 0.00 0.00 0.00 63 1017.3